Location: Carthage
(33.8834°N, 106.6595°W)
Time: 11:02:20
(UTC+00:00)

Cosmos 2208 Rocket - Pass Details

Date: 13 February 2026
Orbit: 749 x 802 km, 74.0° (Epoch: 11 March)

Event Time Altitude Azimuth Distance (km) Brightness Sun altitude
Rises 12:41:16 0° 337° (NNW) 3,308 7.0 -15.5°
Reaches altitude 10° 12:43:43 10° 332° (NNW) 2,378 6.2 -15.0°
Maximum altitude 12:48:57 52° 257° (WSW) 990 4.2 -13.9°
Drops below altitude 10° 12:54:11 10° 182° (S) 2,365 6.6 -12.8°
Sets 12:56:37 0° 178° (S) 3,289 7.4 -12.3°
